Weather History for Gwinn, MI

Change the Weather History Date:

Monday, December 31, 2012

  Actual Average (KESC) Record (KESC)
Temperature  
Mean Temperature 18 °F -  
Max Temperature 23 °F 26 °F 49 °F (1965)
Min Temperature 12 °F 12 °F -15 °F (1967)
Degree Days  
Heating Degree Days 48    
Moisture  
Dew Point 11 °F    
Average Humidity 79    
Maximum Humidity 86    
Minimum Humidity 62    
Precipitation  
Precipitation 0.00 in - - ()
Sea Level Pressure  
Sea Level Pressure 29.87 in    
Wind  
Wind Speed 9 mph (West)    
Max Wind Speed 20 mph    
Max Gust Speed 24 mph    
Visibility 9 miles    
Events Snow    
Averages and records for this station are not official NWS values.
T = Trace of Precipitation, MM = Missing Value Source: NWS Daily Summary

Daily Weather History Graph

Daily Weather History Graph

Search for Another Location

Airport:

Trip Planner

Search our weather history database for the weather conditions in past years. The results will help you decide how hot, cold, wet, or windy it might be!

Date:

Astronomy

Dec. 31, 2012 Rise Set
Actual Time 8:32 AM EST 5:13 PM EST
Civil Twilight 7:58 AM EST 5:47 PM EST
Nautical Twilight 7:19 AM EST 6:25 PM EST
Astronomical Twilight 6:43 AM EST 7:02 PM EST
Moon 8:56 PM EST (12/31) 10:02 AM EST (12/31)
Length of Visible Light 9h 49m
Length of Day
8h 40m
Waning Gibbous, 90% of the Moon is Illuminated
Dec 31
Waning Gibbous
Jan 4
Last Quarter
Jan 11
New
Jan 18
First Quarter
Jan 26
Full

Hourly Weather History & Observations

Time (EST) Temp. Windchill Dew Point Humidity Pressure Visibility Wind Dir Wind Speed Gust Speed Precip Events Conditions
12:17 AM 16.2 °F 1.9 °F 11.8 °F 83% 29.80 in 10.0 mi SSW 13.8 mph - N/A   Overcast
12:37 AM 16.3 °F 4.1 °F 12.0 °F 83% 29.80 in 10.0 mi SW 10.4 mph - N/A   Overcast
12:57 AM 16.3 °F 6.7 °F 12.0 °F 83% 29.79 in 10.0 mi SSW 6.9 mph - N/A   Overcast
1:17 AM 15.4 °F 5.6 °F 11.3 °F 84% 29.79 in 10.0 mi SW 6.9 mph - N/A   Mostly Cloudy
1:37 AM 15.8 °F 6.1 °F 12.0 °F 85% 29.77 in 10.0 mi SSW 6.9 mph - N/A   Mostly Cloudy
1:56 AM 16.7 °F 7.2 °F 12.7 °F 84% 29.77 in 10.0 mi SSW 6.9 mph - N/A   Overcast
2:17 AM 17.4 °F 6.2 °F 12.9 °F 83% 29.76 in 10.0 mi SSW 9.2 mph - N/A   Overcast
2:37 AM 17.2 °F 6.0 °F 12.9 °F 83% 29.76 in 10.0 mi SSW 9.2 mph - N/A   Overcast
2:56 AM 16.7 °F 6.2 °F 12.7 °F 84% 29.77 in 10.0 mi SSW 8.1 mph - N/A   Overcast
3:17 AM 16.7 °F 7.2 °F 12.9 °F 85% 29.76 in 10.0 mi SSW 6.9 mph - N/A   Overcast
3:36 AM 17.2 °F 8.9 °F 13.1 °F 84% 29.76 in 10.0 mi SW 5.8 mph - N/A   Overcast
3:57 AM 17.1 °F 11.7 °F 12.9 °F 84% 29.76 in 10.0 mi WSW 3.5 mph - N/A   Scattered Clouds
4:17 AM 16.5 °F 11.0 °F 12.7 °F 85% 29.76 in 10.0 mi SW 3.5 mph - N/A   Mostly Cloudy
4:36 AM 16.7 °F 9.6 °F 12.9 °F 85% 29.76 in 10.0 mi SW 4.6 mph - N/A   Overcast
4:57 AM 16.9 °F 11.5 °F 13.1 °F 85% 29.77 in 10.0 mi WSW 3.5 mph - N/A   Overcast
5:17 AM 19.2 °F 10.2 °F 14.9 °F 83% 29.78 in 10.0 mi West 6.9 mph - N/A   Overcast
5:37 AM 21.0 °F 12.4 °F 16.2 °F 81% 29.77 in 10.0 mi West 6.9 mph - N/A   Overcast
5:57 AM 21.7 °F 13.2 °F 16.7 °F 81% 29.77 in 10.0 mi West 6.9 mph - N/A   Overcast
6:50 AM 23.0 °F 13.1 °F 17.6 °F 80% 29.79 in 10.0 mi WNW 9.2 mph - N/A   Overcast
7:50 AM 23.0 °F 13.9 °F 17.6 °F 80% 29.82 in 10.0 mi WNW 8.1 mph - N/A Snow Light Snow
8:55 AM 23.0 °F 13.9 °F 15.8 °F 74% 29.84 in 7.0 mi WNW 8.1 mph - N/A Snow Light Snow
9:50 AM 21.2 °F 10.9 °F 17.6 °F 86% 29.87 in 1.2 mi WNW 9.2 mph - N/A Snow Light Snow
10:55 AM 19.4 °F 6.6 °F 14.0 °F 80% 29.90 in 1.5 mi WNW 12.7 mph 18.4 mph N/A Snow Light Snow
11:55 AM 17.6 °F 4.3 °F 14.0 °F 86% 29.90 in 0.5 mi NNW 12.7 mph - N/A Snow Snow
12:50 PM 17.6 °F 2.7 °F 8.6 °F 68% 29.91 in 7.0 mi NW 16.1 mph 21.9 mph N/A   Mostly Cloudy
1:50 PM 15.8 °F -1.1 °F 8.6 °F 73% 29.91 in 7.0 mi NNW 19.6 mph 24.2 mph N/A   Overcast
2:50 PM 15.8 °F 0.9 °F 5.0 °F 62% 29.92 in 8.0 mi NW 15.0 mph 20.7 mph N/A   Mostly Cloudy
3:50 PM 14.0 °F -0.2 °F 5.0 °F 67% 29.96 in 7.0 mi NNW 12.7 mph 19.6 mph N/A   Mostly Cloudy
4:50 PM 12.2 °F -0.2 °F 3.2 °F 67% 29.98 in 10.0 mi NNW 9.2 mph - N/A   Mostly Cloudy
5:55 PM 12.2 °F -0.2 °F 3.2 °F 67% 30.00 in 10.0 mi NW 9.2 mph - N/A   Overcast
6:50 PM 12.2 °F -0.2 °F 3.2 °F 67% 30.01 in 10.0 mi NW 9.2 mph - N/A   Overcast
7:50 PM 12.2 °F -1.0 °F 5.0 °F 73% 30.02 in 10.0 mi NW 10.4 mph - N/A   Overcast
8:50 PM 12.2 °F 1.7 °F 5.0 °F 73% 30.02 in 10.0 mi NW 6.9 mph - N/A   Overcast
9:50 PM 12.2 °F -0.2 °F 5.0 °F 73% 30.02 in 10.0 mi NNW 9.2 mph - N/A   Overcast
10:37 PM 12.7 °F 1.4 °F 5.9 °F 74% 30.02 in 10.0 mi WNW 8.1 mph - N/A   Overcast
10:57 PM 12.6 °F 1.1 °F 6.3 °F 76% 30.02 in 10.0 mi WNW 8.1 mph - N/A   Overcast
11:17 PM 12.4 °F 2.0 °F 6.4 °F 77% 30.03 in 10.0 mi WNW 6.9 mph - N/A   Overcast
11:37 PM 12.6 °F 1.1 °F 6.8 °F 78% 30.03 in 10.0 mi WNW 8.1 mph - N/A   Overcast
11:57 PM 12.6 °F 0.2 °F 6.8 °F 78% 30.03 in 10.0 mi WNW 9.2 mph - N/A Snow Light Snow